TimeEDT,TemperatureF,Dew PointF,Humidity,Sea Level PressureIn,VisibilityMPH,Wind Direction,Wind SpeedMPH,Gust SpeedMPH,PrecipitationIn,Events,Conditions,WindDirDegrees,DateUTC
12:15 AM,23.0,19.4,86,29.87,10.0,West,3.5,-,N/A,,Overcast,270,2013-03-23 04:15:00
12:35 AM,23.0,19.4,86,29.87,10.0,West,6.9,-,N/A,Snow,Light Snow,270,2013-03-23 04:35:00
12:55 AM,23.0,19.4,86,29.87,10.0,West,4.6,-,N/A,Snow,Light Snow,260,2013-03-23 04:55:00
1:15 AM,23.0,19.4,86,29.86,10.0,West,4.6,-,N/A,Snow,Light Snow,270,2013-03-23 05:15:00
1:55 AM,23.0,21.2,93,29.86,4.0,West,3.5,-,N/A,Snow,Light Snow,260,2013-03-23 05:55:00
2:15 AM,23.0,21.2,93,29.86,5.0,West,3.5,-,N/A,Snow,Light Snow,270,2013-03-23 06:15:00
2:35 AM,23.0,21.2,93,29.86,7.0,West,4.6,-,N/A,Snow,Light Snow,280,2013-03-23 06:35:00
2:55 AM,23.0,21.2,93,29.86,5.0,West,4.6,-,N/A,Snow,Light Snow,270,2013-03-23 06:55:00
3:15 AM,23.0,21.2,93,29.86,7.0,West,3.5,-,N/A,Snow,Light Snow,280,2013-03-23 07:15:00
3:35 AM,23.0,21.2,93,29.85,5.0,West,4.6,-,N/A,Snow,Light Snow,280,2013-03-23 07:35:00
3:55 AM,23.0,21.2,93,29.85,7.0,West,3.5,-,N/A,Snow,Light Snow,280,2013-03-23 07:55:00
4:15 AM,23.0,21.2,93,29.85,10.0,West,4.6,-,N/A,Snow,Light Snow,280,2013-03-23 08:15:00
4:35 AM,23.0,21.2,93,29.85,7.0,WNW,5.8,-,N/A,Snow,Light Snow,290,2013-03-23 08:35:00
4:55 AM,23.0,21.2,93,29.85,10.0,West,3.5,-,N/A,Snow,Light Snow,270,2013-03-23 08:55:00
5:15 AM,23.0,21.2,93,29.85,10.0,Calm,Calm,-,N/A,Snow,Light Snow,0,2013-03-23 09:15:00
5:35 AM,23.0,21.2,93,29.85,10.0,Calm,Calm,-,N/A,Snow,Light Snow,0,2013-03-23 09:35:00
5:55 AM,23.0,21.2,93,29.85,10.0,West,4.6,-,N/A,Snow,Light Snow,270,2013-03-23 09:55:00
6:15 AM,23.0,21.2,93,29.86,10.0,Calm,Calm,-,N/A,Snow,Light Snow,0,2013-03-23 10:15:00
6:35 AM,23.0,21.2,93,29.86,7.0,WNW,3.5,-,N/A,Snow,Light Snow,300,2013-03-23 10:35:00
6:55 AM,23.0,21.2,93,29.86,7.0,WNW,5.8,-,N/A,Snow,Light Snow,290,2013-03-23 10:55:00
7:15 AM,23.0,21.2,93,29.86,10.0,WNW,6.9,-,N/A,Snow,Light Snow,290,2013-03-23 11:15:00
7:35 AM,23.0,21.2,93,29.86,7.0,WNW,4.6,-,N/A,Snow,Light Snow,290,2013-03-23 11:35:00
7:55 AM,24.8,21.2,86,29.87,7.0,West,3.5,-,N/A,Snow,Light Snow,270,2013-03-23 11:55:00
8:15 AM,24.8,21.2,86,29.87,5.0,West,3.5,-,N/A,Snow,Light Snow,270,2013-03-23 12:15:00
8:35 AM,24.8,21.2,86,29.87,4.0,WNW,5.8,-,N/A,Snow,Light Snow,290,2013-03-23 12:35:00
8:55 AM,24.8,23.0,93,29.87,5.0,Calm,Calm,-,N/A,Snow,Light Snow,0,2013-03-23 12:55:00
9:15 AM,26.6,23.0,86,29.87,7.0,WNW,8.1,-,N/A,Snow,Light Snow,300,2013-03-23 13:15:00
9:35 AM,26.6,23.0,86,29.88,5.0,West,4.6,-,N/A,Snow,Light Snow,280,2013-03-23 13:35:00
9:55 AM,26.6,23.0,86,29.88,5.0,WNW,6.9,-,N/A,Snow,Light Snow,290,2013-03-23 13:55:00
10:15 AM,26.6,23.0,86,29.88,2.5,WNW,6.9,-,N/A,Snow,Light Snow,290,2013-03-23 14:15:00
10:35 AM,26.6,23.0,86,29.88,3.0,WNW,4.6,-,N/A,Snow,Light Snow,300,2013-03-23 14:35:00
10:55 AM,26.6,23.0,86,29.89,2.5,WNW,4.6,-,N/A,Snow,Light Snow,300,2013-03-23 14:55:00
11:15 AM,28.4,23.0,80,29.89,4.0,WNW,8.1,-,N/A,Snow,Light Snow,290,2013-03-23 15:15:00
11:35 AM,28.4,23.0,80,29.90,5.0,WNW,5.8,-,N/A,Snow,Light Snow,290,2013-03-23 15:35:00
11:55 AM,28.4,23.0,80,29.90,10.0,West,5.8,17.3,N/A,,Overcast,280,2013-03-23 15:55:00
12:15 PM,28.4,21.2,74,29.90,10.0,WNW,8.1,-,N/A,,Overcast,290,2013-03-23 16:15:00
12:35 PM,28.4,21.2,74,29.91,10.0,WNW,8.1,-,N/A,,Overcast,290,2013-03-23 16:35:00
12:55 PM,28.4,21.2,74,29.90,10.0,West,8.1,-,N/A,,Overcast,280,2013-03-23 16:55:00
1:15 PM,28.4,21.2,74,29.91,10.0,WNW,5.8,-,N/A,Snow,Light Snow,290,2013-03-23 17:15:00
1:55 PM,28.4,21.2,74,29.90,4.0,WNW,9.2,-,N/A,Snow,Light Snow,300,2013-03-23 17:55:00
2:15 PM,30.2,21.2,69,29.90,4.0,WNW,11.5,17.3,N/A,Snow,Light Snow,290,2013-03-23 18:15:00
2:35 PM,30.2,21.2,69,29.91,5.0,WNW,9.2,-,N/A,Snow,Light Snow,300,2013-03-23 18:35:00
2:55 PM,30.2,21.2,69,29.90,10.0,WNW,8.1,16.1,N/A,,Overcast,300,2013-03-23 18:55:00
3:15 PM,30.2,19.4,64,29.90,10.0,WNW,8.1,18.4,N/A,,Overcast,290,2013-03-23 19:15:00
3:35 PM,30.2,21.2,69,29.90,10.0,WNW,9.2,20.7,N/A,,Overcast,290,2013-03-23 19:35:00
3:55 PM,30.2,21.2,69,29.90,10.0,WNW,8.1,17.3,N/A,,Overcast,290,2013-03-23 19:55:00
4:15 PM,30.2,19.4,64,29.90,10.0,WNW,8.1,18.4,N/A,,Overcast,290,2013-03-23 20:15:00
4:35 PM,30.2,19.4,64,29.90,10.0,WNW,8.1,17.3,N/A,,Overcast,290,2013-03-23 20:35:00
4:55 PM,30.2,19.4,64,29.91,10.0,WNW,6.9,18.4,N/A,,Overcast,290,2013-03-23 20:55:00
5:15 PM,30.2,19.4,64,29.91,10.0,WNW,9.2,-,N/A,,Overcast,290,2013-03-23 21:15:00
5:35 PM,30.2,19.4,64,29.91,10.0,West,8.1,16.1,N/A,,Overcast,280,2013-03-23 21:35:00
5:55 PM,32.0,19.4,60,29.91,10.0,WNW,5.8,-,N/A,,Overcast,290,2013-03-23 21:55:00
6:15 PM,30.2,19.4,64,29.91,10.0,WNW,5.8,-,N/A,,Overcast,290,2013-03-23 22:15:00
6:35 PM,30.2,21.2,69,29.92,10.0,West,6.9,-,N/A,,Overcast,280,2013-03-23 22:35:00
6:55 PM,30.2,21.2,69,29.92,10.0,West,6.9,-,N/A,,Overcast,280,2013-03-23 22:55:00
7:15 PM,30.2,21.2,69,29.93,10.0,WNW,6.9,-,N/A,,Overcast,290,2013-03-23 23:15:00
7:35 PM,28.4,21.2,74,29.94,10.0,West,4.6,-,N/A,,Overcast,280,2013-03-23 23:35:00
7:55 PM,28.4,21.2,74,29.93,10.0,West,6.9,-,N/A,,Overcast,270,2013-03-23 23:55:00
8:15 PM,28.4,21.2,74,29.94,10.0,West,5.8,-,N/A,,Overcast,280,2013-03-24 00:15:00
8:35 PM,28.4,21.2,74,29.94,10.0,WNW,8.1,-,N/A,,Overcast,300,2013-03-24 00:35:00
8:55 PM,28.4,21.2,74,29.94,10.0,WNW,4.6,-,N/A,,Overcast,290,2013-03-24 00:55:00
9:15 PM,28.4,21.2,74,29.94,10.0,WNW,5.8,-,N/A,,Overcast,300,2013-03-24 01:15:00
9:55 PM,28.4,23.0,80,29.94,10.0,WNW,8.1,-,N/A,,Overcast,290,2013-03-24 01:55:00
10:15 PM,28.4,23.0,80,29.94,10.0,WNW,8.1,-,N/A,,Overcast,290,2013-03-24 02:15:00
10:35 PM,28.4,23.0,80,29.93,10.0,West,8.1,16.1,N/A,,Overcast,280,2013-03-24 02:35:00
10:55 PM,26.6,23.0,86,29.94,10.0,WNW,5.8,-,N/A,,Overcast,290,2013-03-24 02:55:00
11:15 PM,26.6,23.0,86,29.94,10.0,WNW,6.9,-,N/A,,Overcast,300,2013-03-24 03:15:00
11:35 PM,26.6,23.0,86,29.93,10.0,WNW,3.5,-,N/A,,Overcast,300,2013-03-24 03:35:00
11:55 PM,26.6,23.0,86,29.94,10.0,WNW,6.9,-,N/A,,Overcast,290,2013-03-24 03:55:00